(19697) = 1997 EF56 = 1999 SY3

Discovered at Visnjan on 1999-09-29 by K. Korlevic.

Orbit

Orbit type: Main Belt

Note: WebGL enabled browser required.

epoch2024-03-31.0
epoch JD2460400.5
perihelion date2021-11-27.75258
perihelion JD2459546.25258
argument of perihelion (°)302.13945
ascending node (°)345.47481
inclination (°)0.48227
eccentricity0.1335821
perihelion distance (AU)2.7927281
Tisserand w.r.t. Jupiter3.2
ΔV w.r.t. Earth (km/sec)10.4
semimajor axis (AU)3.2233040
mean anomaly (°)145.49083
mean daily motion (°/day)0.17031460
aphelion distance (AU)3.654
period (years)5.79
P-vector [x]0.30261468
P-vector [y]-0.87160454
P-vector [z]-0.38565514
Q-vector [x]0.95311064
Q-vector [y]0.27583874
Q-vector [z]0.12447125
absolute magnitude13.91
phase slope0.15
uncertainty0
referenceMPEC 2024-F74
observations used2150
oppositions24
arc length (days)11138
first opposition used1993
last opposition used2024
residual rms (arc-secs)0.65
perturbers coarse indicatorM-v
perturbers precise indicator003Ek
first observation date used1993-09-22.0
last observation date used2024-03-21.0
computer nameMPCLINUX
JD of orbit computation2456937.280020
perihelion JD uncertainty (days)9.7267E-05
argument of perihelion uncertainty (°)3.7270E-04
ascending node uncertainty (°)3.7244E-04
inclination uncertainty (°)3.9987E-06
eccentricity uncertainty 3.0819E-08
perihelion distance uncertainty (AU)1.0688E-07
Minimum Orbit Intersection Distances (in AU)
for orbit epoch: 2460400.5, reference: E2024-GB3
Mercury2.33845
Venus2.06522
Earth1.77618
Mars1.34959
Jupiter1.49783
Saturn5.40159
Uranus14.9331
Neptune26.3528

Observations

2190 total observations over interval: 1993 09 22.22049 – 2024 03 21.120385
These data are available for download (format description).

Date (UT) J2000 RA J2000 Dec Magn Location Ref
1993 09 22.22049 23 46 20.37 -01 23 57.2 18.5   809 – European Southern Observatory, La Silla MPS 8549
1993 09 22.24132 23 46 19.41 -01 24 03.9   809 – European Southern Observatory, La Silla MPS 8549
1993 09 22.26215 23 46 18.42 -01 24 10.4   809 – European Southern Observatory, La Silla MPS 8549
1997 03 09.26944 12 55 59.11 -06 11 49.6 18.6   809 – European Southern Observatory, La Silla MPS 6674
1997 03 09.28264 12 55 58.65 -06 11 46.5   809 – European Southern Observatory, La Silla MPS 6674
1997 03 09.29583 12 55 58.24 -06 11 44.9   809 – European Southern Observatory, La Silla MPS 6674
1997 03 10.26875 12 55 26.54 -06 08 36.8 18.5   809 – European Southern Observatory, La Silla MPC 30607
1997 03 10.28194 12 55 26.05 -06 08 34.5   809 – European Southern Observatory, La Silla MPC 30607
1997 03 10.29514 12 55 25.59 -06 08 32.6   809 – European Southern Observatory, La Silla MPC 30607
1997 03 11.19653 12 54 55.38 -06 05 30.4   809 – European Southern Observatory, La Silla MPC 30607
1997 03 11.20972 12 54 54.87 -06 05 28.4   809 – European Southern Observatory, La Silla MPC 30607
1997 03 11.22292 12 54 54.39 -06 05 25.7   809 – European Southern Observatory, La Silla MPC 30607
1998 06 24.25152 18 49 38.43 -23 42 46.1 17.6   704 – Lincoln Laboratory ETS, New Mexico MPS 8549
1998 06 24.26986 18 49 37.56 -23 42 45.9 17.7   704 – Lincoln Laboratory ETS, New Mexico MPS 8549
1998 06 24.28813 18 49 36.50 -23 42 50.2 17.7   704 – Lincoln Laboratory ETS, New Mexico MPS 8549
1998 06 24.30651 18 49 35.48 -23 42 50.0 18.0   704 – Lincoln Laboratory ETS, New Mexico MPS 8549
1998 06 24.32490 18 49 34.78 -23 42 50.0 18.0   704 – Lincoln Laboratory ETS, New Mexico MPS 8549
1998 06 26.28341 18 47 59.31 -23 44 43.5 17.9   704 – Lincoln Laboratory ETS, New Mexico MPS 8549
1998 06 26.30187 18 47 58.31 -23 44 43.2 17.7   704 – Lincoln Laboratory ETS, New Mexico MPS 8549
1998 06 26.32040 18 47 57.36 -23 44 43.0 17.7   704 – Lincoln Laboratory ETS, New Mexico MPS 8549
1998 06 26.33884 18 47 56.06 -23 44 40.4 18.6   704 – Lincoln Laboratory ETS, New Mexico MPS 8549
1999 09 07.40505 00 53 10.32 +05 52 34.6 19.0   704 – Lincoln Laboratory ETS, New Mexico MPS 6870
1999 09 07.41644 00 53 09.92 +05 52 33.1 19.9   704 – Lincoln Laboratory ETS, New Mexico MPS 6870
1999 09 07.42783 00 53 09.56 +05 52 30.7 19.8   704 – Lincoln Laboratory ETS, New Mexico MPS 6870
1999 09 07.43920 00 53 09.17 +05 52 28.3 19.4   704 – Lincoln Laboratory ETS, New Mexico MPS 6870
1999 09 29.01248 00 39 12.60 +04 27 50.0 18.6   120 – Visnjan MPS 6870
1999 09 29.02677 00 39 11.90 +04 27 46.4   120 – Visnjan MPS 6870
1999 09 29.84693 00 38 36.23 +04 24 05.8 18.4   120 – Visnjan MPS 6870
1999 09 29.86813 00 38 35.33 +04 24 00.2   120 – Visnjan MPS 6870
1999 09 30.26953 00 38 17.73 +04 22 12.2 18.1 R 703 – Catalina Sky Survey MPS 6870
1999 09 30.28197 00 38 17.17 +04 22 09.1 18.0 R 703 – Catalina Sky Survey MPS 6870
1999 09 30.29434 00 38 16.59 +04 22 05.5 18.4 R 703 – Catalina Sky Survey MPS 6870
1999 09 30.30675 00 38 16.08 +04 22 02.5 18.7 R 703 – Catalina Sky Survey MPS 6870
1999 09 30.87591 00 37 51.31 +04 19 29.6 18.6   120 – Visnjan MPS 6870
1999 09 30.88971 00 37 50.62 +04 19 25.1   120 – Visnjan MPS 6870
1999 10 04.29412 00 35 21.35 +04 03 59.5 18.6   704 – Lincoln Laboratory ETS, New Mexico MPS 6870
1999 10 04.32098 00 35 20.17 +04 03 52.5 19.1   704 – Lincoln Laboratory ETS, New Mexico MPS 6870
1999 10 04.33438 00 35 19.65 +04 03 47.5 19.2   704 – Lincoln Laboratory ETS, New Mexico MPS 6870
1999 10 04.34776 00 35 19.03 +04 03 45.4 19.3   704 – Lincoln Laboratory ETS, New Mexico MPS 6870
1999 10 07.31207 00 33 09.86 +03 50 21.8 18.6   704 – Lincoln Laboratory ETS, New Mexico MPS 6870
1999 10 07.32252 00 33 09.47 +03 50 19.7 19.0   704 – Lincoln Laboratory ETS, New Mexico MPS 6870
1999 10 07.33329 00 33 08.96 +03 50 16.4 19.0   704 – Lincoln Laboratory ETS, New Mexico MPS 6870
1999 10 07.34381 00 33 08.50 +03 50 14.2 19.2   704 – Lincoln Laboratory ETS, New Mexico MPS 6870
1999 10 07.35447 00 33 08.00 +03 50 11.7 19.2   704 – Lincoln Laboratory ETS, New Mexico MPS 6870
1999 10 09.17832 00 31 49.79 +03 42 01.1 18.9   704 – Lincoln Laboratory ETS, New Mexico MPS 11994
1999 10 09.19378 00 31 49.13 +03 41 57.7 19.1   704 – Lincoln Laboratory ETS, New Mexico MPS 11994
1999 10 09.20924 00 31 48.43 +03 41 53.1 19.0   704 – Lincoln Laboratory ETS, New Mexico MPS 11994
1999 10 09.22465 00 31 47.78 +03 41 48.4 18.8   704 – Lincoln Laboratory ETS, New Mexico MPS 11994
1999 10 09.24009 00 31 47.05 +03 41 43.9 19.3   704 – Lincoln Laboratory ETS, New Mexico MPS 11994
1999 10 16.79028 00 26 36.69 +03 09 18.2 18.7   120 – Visnjan MPS 6870
1999 10 16.81003 00 26 36.11 +03 09 14.3   120 – Visnjan MPS 6870
1999 10 16.82412 00 26 35.41 +03 09 11.0   120 – Visnjan MPS 6870
1999 10 29.14432 00 19 32.88 +02 24 49.4 18.8 R 703 – Catalina Sky Survey MPS 7362
1999 10 29.15631 00 19 32.61 +02 24 44.8 18.9 R 703 – Catalina Sky Survey MPS 7362
1999 10 29.16830 00 19 32.02 +02 24 43.3 19.5 R 703 – Catalina Sky Survey MPS 7362
1999 10 29.18027 00 19 31.87 +02 24 42.5 18.8 R 703 – Catalina Sky Survey MPS 7362
1999 11 06.18243 00 16 15.27 +02 03 57.9 19.5   704 – Lincoln Laboratory ETS, New Mexico MPS 7362
1999 11 06.19875 00 16 14.91 +02 03 56.7 19.7   704 – Lincoln Laboratory ETS, New Mexico MPS 7362
1999 11 06.21510 00 16 14.61 +02 03 53.5 19.7   704 – Lincoln Laboratory ETS, New Mexico MPS 7362
1999 11 06.23149 00 16 14.22 +02 03 52.5 19.6   704 – Lincoln Laboratory ETS, New Mexico MPS 7362
1999 11 09.07112 00 15 21.99 +01 58 21.1 18.2   704 – Lincoln Laboratory ETS, New Mexico MPS 7362
1999 11 09.08551 00 15 21.80 +01 58 18.7 18.8   704 – Lincoln Laboratory ETS, New Mexico MPS 7362
1999 11 09.09989 00 15 21.50 +01 58 18.0 19.1   704 – Lincoln Laboratory ETS, New Mexico MPS 7362
1999 11 09.11427 00 15 21.21 +01 58 15.7 19.4   704 – Lincoln Laboratory ETS, New Mexico MPS 7362
1999 11 12.14389 00 14 35.98 +01 53 30.3 19.4   704 – Lincoln Laboratory ETS, New Mexico MPS 7362
1999 11 12.15843 00 14 35.78 +01 53 28.3 19.6   704 – Lincoln Laboratory ETS, New Mexico MPS 7362
1999 11 12.18751 00 14 35.35 +01 53 24.4 19.9   704 – Lincoln Laboratory ETS, New Mexico MPS 7362
1999 11 12.20196 00 14 35.09 +01 53 24.5 19.8   704 – Lincoln Laboratory ETS, New Mexico MPS 7362
2000 09 06.41770 05 16 19.26 +23 33 01.3 19.4   704 – Lincoln Laboratory ETS, New Mexico MPS 17618
2000 09 06.42874 05 16 19.73 +23 33 01.5 20.1   704 – Lincoln Laboratory ETS, New Mexico MPS 17618
2000 09 06.43979 05 16 20.21 +23 33 02.5 20.3   704 – Lincoln Laboratory ETS, New Mexico MPS 17618
2000 11 05.39884 05 25 06.70 +23 51 06.6 20.1   704 – Lincoln Laboratory ETS, New Mexico MPS 20860
2000 11 05.41358 05 25 06.23 +23 51 04.1 19.9   704 – Lincoln Laboratory ETS, New Mexico MPS 20860
2000 11 05.44094 05 25 05.39 +23 51 02.6 19.5   704 – Lincoln Laboratory ETS, New Mexico MPS 20860
2000 11 21.36325 05 15 08.83 +23 43 32.1 18.6   704 – Lincoln Laboratory ETS, New Mexico MPS 22290
2000 11 21.37796 05 15 08.20 +23 43 31.0 19.8   704 – Lincoln Laboratory ETS, New Mexico MPS 22290
2000 11 21.39266 05 15 07.51 +23 43 30.3 19.6   704 – Lincoln Laboratory ETS, New Mexico MPS 22290
2000 11 21.42581 05 15 05.98 +23 43 29.6 19.2   704 – Lincoln Laboratory ETS, New Mexico MPS 22290
2000 11 27.39055 05 10 26.33 +23 38 41.9 19.0 V 691 – Steward Observatory, Kitt Peak-Spacewatch MPS 22290
2000 11 27.41696 05 10 25.03 +23 38 40.3 18.6 V 691 – Steward Observatory, Kitt Peak-Spacewatch MPS 22290
2000 11 27.44087 05 10 23.80 +23 38 39.1 19.6 V 691 – Steward Observatory, Kitt Peak-Spacewatch MPS 22290
2000 11 29.31012 05 08 52.28 +23 36 56.1 18.6   704 – Lincoln Laboratory ETS, New Mexico MPS 22290
2000 11 29.32562 05 08 51.52 +23 36 55.0 19.0   704 – Lincoln Laboratory ETS, New Mexico MPS 22290
2000 11 29.35912 05 08 49.82 +23 36 53.1 19.5   704 – Lincoln Laboratory ETS, New Mexico MPS 22290
2000 11 29.37412 05 08 49.00 +23 36 52.0 19.3   704 – Lincoln Laboratory ETS, New Mexico MPS 22290
2000 12 30.22590 04 44 10.50 +22 58 44.4 19.4   704 – Lincoln Laboratory ETS, New Mexico MPS 24707
